Weather History for Ireland West Airport Knock, Ireland

Change the Weather History Date:

Saturday, January 11, 2014

  Actual Average Record
Temperature  
Mean Temperature 35 °F -  
Max Temperature 40 °F - - ()
Min Temperature 30 °F - - ()
Degree Days  
Heating Degree Days 30    
Moisture  
Dew Point 33 °F    
Average Humidity 91    
Maximum Humidity 100    
Minimum Humidity 81    
Precipitation  
Precipitation 0.00 in - - ()
Sea Level Pressure  
Sea Level Pressure 30.03 in    
Wind  
Wind Speed 6 mph ()    
Max Wind Speed 18 mph    
Max Gust Speed -    
Visibility 8.6 miles    
Events Snow    
T = Trace of Precipitation, MM = Missing Value Source: Averaged Metar Reports

Daily Weather History Graph

Daily Weather History Graph

Search for Another Location

Airport:

Trip Planner

Search our weather history database for the weather conditions in past years. The results will help you decide how hot, cold, wet, or windy it might be!

Date:

Astronomy

Jan. 11, 2014 Rise Set
Actual Time 8:48 AM GMT 4:37 PM GMT
Civil Twilight 8:06 AM GMT 5:19 PM GMT
Nautical Twilight 7:21 AM GMT 6:04 PM GMT
Astronomical Twilight 6:39 AM GMT 6:47 PM GMT
Moon 1:20 PM GMT (1/11) 4:31 AM GMT (1/11)
Length of Visible Light 9h 13m
Length of Day
7h 48m
Waxing Gibbous, 81% of the Moon is Illuminated
Jan 11
Waxing Gibbous
Jan 16
Full
Jan 24
Last Quarter
Jan 30
New
Feb 6
First Quarter

Hourly Weather History & Observations

Time (GMT) Temp. Windchill Dew Point Humidity Pressure Visibility Wind Dir Wind Speed Gust Speed Precip Events Conditions
12:00 AM 34 °F - 33 °F 95% 29.88 in - West 8.9 mph - -  
1:00 AM 33 °F - 33 °F 100% 29.90 in - WSW 8.9 mph - -  
2:00 AM 33 °F - 33 °F 99% 29.90 in - WSW 6.7 mph - -  
3:00 AM 31 °F - - % 29.93 in - SW 4.5 mph - -  
4:00 AM 33 °F - 33 °F 98% 29.96 in - SW 8.9 mph - -  
5:00 AM 32 °F - 31 °F 96% 29.98 in - SW 6.7 mph - -  
6:00 AM 31 °F - 31 °F 100% 29.99 in 19 mi South 4.5 mph - -   Scattered Clouds
6:00 AM 32.0 °F 27.5 °F 32.0 °F 100% 29.95 in - South 4.6 mph - N/A   Clear
7:00 AM 31 °F - 31 °F 100% 30.02 in 19 mi SSW 4.5 mph - -   Scattered Clouds
7:00 AM 32.0 °F 27.5 °F 32.0 °F 100% 29.98 in 6.2 mi SSW 4.6 mph - N/A   Partly Cloudy
7:30 AM 32.0 °F 27.5 °F 30.2 °F 93% 29.98 in - SW 4.6 mph - N/A   Clear
8:00 AM 32 °F - 30 °F 91% 30.04 in 19 mi SSW 4.5 mph - -   Partly Cloudy
8:00 AM 32.0 °F 27.5 °F 30.2 °F 93% 29.98 in 6.2 mi SSW 4.6 mph - N/A   Scattered Clouds
8:30 AM 32.0 °F 26.4 °F 32.0 °F 100% 30.01 in 6.2 mi SSW 5.8 mph - N/A   Scattered Clouds
9:00 AM 34 °F - 33 °F 93% 30.05 in 19 mi WSW 6.7 mph - - Snow Light Snow Showers
9:00 AM 33.8 °F 27.7 °F 32.0 °F 93% 30.01 in 6.2 mi WSW 6.9 mph - N/A   Partly Cloudy
9:30 AM 33.8 °F 28.6 °F 32.0 °F 93% 30.01 in 6.2 mi SW 5.8 mph - N/A   Partly Cloudy
10:00 AM 35 °F - 31 °F 82% 30.07 in 31 mi South 4.5 mph - -   Scattered Clouds
10:00 AM 33.8 °F 30.8 °F 32.0 °F 93% 30.01 in 6.2 mi South 3.5 mph - N/A   Partly Cloudy
10:30 AM 35.6 °F 32.8 °F 32.0 °F 87% 30.04 in 6.2 mi South 3.5 mph - N/A   Partly Cloudy
11:00 AM 36 °F - 32 °F 81% 30.08 in 31 mi South 4.5 mph - -   Scattered Clouds
11:00 AM 35.6 °F 31.7 °F 32.0 °F 87% 30.04 in 6.2 mi South 4.6 mph - N/A   Partly Cloudy
11:30 AM 37.4 °F 34.9 °F 32.0 °F 81% 30.04 in 6.2 mi South 3.5 mph - N/A   Partly Cloudy
12:00 PM 37 °F - 33 °F 81% 30.10 in 37 mi South 4.5 mph - -   Partly Cloudy
12:00 PM 37.4 °F 33.8 °F 33.8 °F 87% 30.06 in 6.2 mi South 4.6 mph - N/A   Partly Cloudy
12:30 PM 39.2 °F 35.0 °F 35.6 °F 87% 30.06 in 6.2 mi South 5.8 mph - N/A   Partly Cloudy
1:00 PM 37 °F - 34 °F 86% 30.09 in 31 mi South 4.5 mph - -   Partly Cloudy
1:00 PM 37.4 °F 33.8 °F 33.8 °F 87% 30.04 in 6.2 mi South 4.6 mph - N/A   Scattered Clouds
1:30 PM 39.2 °F 35.9 °F 35.6 °F 87% 30.06 in 6.2 mi South 4.6 mph - N/A   Partly Cloudy
2:00 PM 40 °F - 36 °F 82% 30.09 in 31 mi South 4.5 mph - -   Scattered Clouds
2:00 PM 41.0 °F 38.0 °F 37.4 °F 87% 30.06 in 6.2 mi South 4.6 mph - N/A   Scattered Clouds
2:30 PM 41.0 °F 37.1 °F 37.4 °F 87% 30.04 in 6.2 mi SSE 5.8 mph - N/A   Scattered Clouds
3:00 PM 39 °F - 37 °F 88% 30.09 in 31 mi SSE 4.5 mph - -   Scattered Clouds
3:00 PM 39.2 °F 35.9 °F 37.4 °F 93% 30.06 in 6.2 mi SSE 4.6 mph - N/A   Scattered Clouds
3:30 PM 39.2 °F 35.9 °F 35.6 °F 87% 30.04 in 6.2 mi SSE 4.6 mph - N/A   Scattered Clouds
4:00 PM 37 °F - 36 °F 92% 30.10 in 31 mi SE 4.5 mph - -   Scattered Clouds
4:00 PM 37.4 °F 33.8 °F 35.6 °F 93% 30.06 in 6.2 mi SE 4.6 mph - N/A   Scattered Clouds
4:30 PM 37.4 °F 33.8 °F 35.6 °F 93% 30.06 in 6.2 mi SE 4.6 mph - N/A   Scattered Clouds
5:00 PM 36 °F - 36 °F 99% 30.09 in 28 mi SE 6.7 mph - -   Scattered Clouds
5:00 PM 35.6 °F 30.7 °F 35.6 °F 100% 30.04 in 6.2 mi SE 5.8 mph - N/A   Mostly Cloudy
6:00 PM 36 °F - 35 °F 93% 30.09 in 12 mi SSE 8.9 mph - -   Mostly Cloudy
6:00 PM 35.6 °F 28.6 °F 35.6 °F 100% 30.04 in - SSE 9.2 mph - N/A   Clear
7:00 PM 35 °F - 34 °F 93% 30.08 in 12 mi SSE 8.9 mph - -   Mostly Cloudy
7:00 PM 35.6 °F 28.6 °F 33.8 °F 93% 30.04 in - SSE 9.2 mph - N/A   Clear
8:00 PM 35 °F - 33 °F 88% 30.05 in - SE 11.2 mph - -  
9:00 PM 35 °F - 33 °F 88% 30.02 in - SE 13.4 mph - -  
10:00 PM 35 °F - 32 °F 86% 30.01 in - SE 13.4 mph - -  
11:00 PM 35 °F - 33 °F 87% 29.96 in - SE 17.9 mph - -